Precipitable_Water
0.51 0.55 0.55 0.55 0.56 0.44 0.37 0.35 0.35 0.33 0.32 0.28 0.26 0.28 0.29 0.28 0.24 0.23 0.28 0.30 0.26 0.31 0.32 0.30 0.29 0.28 0.39 0.47 0.50 0.52 0.55 0.47 0.44 0.51 0.64 0.71 0.73 0.78 0.79 0.84 0.88 0.94 1.01 1.05 1.09 1.15 1.18 1.23 1.28 1.30 1.28 1.28 1.32 1.35 1.37 1.39 1.45 1.52 1.62 1.64 1.61 1.59 1.55 1.48 1.42 1.35 1.26 1.15 1.07 1.04 1.03 1.01 0.99 0.98 1.00 1.01 1.04 1.07 1.10 1.09 1.10 1.10 1.12 1.13 1.11 1.12 1.15
0.48 0.53 0.56 0.57 0.53 0.51 0.42 0.38 0.36 0.35 0.32 0.29 0.27 0.28 0.31 0.29 0.27 0.30 0.33 0.31 0.32 0.32 0.35 0.38 0.37 0.36 0.47 0.55 0.60 0.57 0.59 0.57 0.49 0.54 0.65 0.70 0.73 0.75 0.80 0.89 0.99 1.03 1.08 1.14 1.19 1.24 1.28 1.29 1.32 1.35 1.34 1.37 1.40 1.40 1.40 1.42 1.43 1.50 1.57 1.57 1.58 1.57 1.54 1.51 1.51 1.49 1.41 1.31 1.18 1.09 1.05 1.02 1.01 1.00 1.00 1.02 1.05 1.06 1.08 1.09 1.10 1.11 1.12 1.15 1.14 1.14 1.15
0.45 0.54 0.58 0.56 0.55 0.51 0.45 0.43 0.41 0.38 0.38 0.30 0.28 0.29 0.30 0.30 0.31 0.31 0.41 0.36 0.35 0.43 0.45 0.49 0.45 0.44 0.47 0.47 0.52 0.57 0.63 0.62 0.58 0.61 0.70 0.73 0.75 0.77 0.84 0.93 1.03 1.08 1.13 1.16 1.16 1.15 1.19 1.28 1.34 1.36 1.38 1.39 1.44 1.47 1.48 1.47 1.45 1.49 1.52 1.51 1.52 1.53 1.54 1.58 1.58 1.55 1.49 1.43 1.36 1.23 1.13 1.07 1.04 1.02 1.02 1.05 1.06 1.08 1.11 1.12 1.12 1.14 1.14 1.14 1.17 1.20 1.20
0.39 0.53 0.57 0.55 0.51 0.48 0.46 0.43 0.42 0.40 0.37 0.32 0.28 0.28 0.29 0.29 0.31 0.31 0.41 0.37 0.43 0.47 0.49 0.48 0.49 0.45 0.43 0.44 0.49 0.51 0.55 0.62 0.65 0.70 0.77 0.78 0.77 0.79 0.86 0.94 0.97 0.98 0.99 1.01 1.05 1.09 1.16 1.25 1.31 1.36 1.41 1.45 1.46 1.45 1.48 1.49 1.51 1.53 1.52 1.51 1.48 1.49 1.54 1.59 1.61 1.59 1.56 1.51 1.46 1.39 1.30 1.20 1.13 1.10 1.08 1.08 1.08 1.10 1.13 1.15 1.16 1.19 1.17 1.17 1.20 1.25 1.26
0.38 0.49 0.55 0.52 0.49 0.47 0.42 0.40 0.42 0.41 0.39 0.39 0.34 0.30 0.31 0.31 0.39 0.35 0.37 0.41 0.46 0.51 0.52 0.45 0.48 0.48 0.48 0.49 0.51 0.50 0.51 0.55 0.66 0.79 0.84 0.85 0.87 0.89 0.93 0.93 0.96 0.99 1.02 1.04 1.05 1.10 1.20 1.29 1.36 1.40 1.43 1.42 1.41 1.46 1.49 1.53 1.57 1.54 1.52 1.52 1.54 1.53 1.54 1.57 1.59 1.60 1.61 1.55 1.50 1.46 1.43 1.38 1.30 1.23 1.19 1.16 1.13 1.13 1.13 1.16 1.20 1.19 1.19 1.23 1.25 1.30 1.32
0.38 0.46 0.51 0.56 0.47 0.35 0.35 0.47 0.49 0.46 0.43 0.42 0.37 0.29 0.30 0.32 0.37 0.41 0.44 0.51 0.52 0.54 0.53 0.47 0.47 0.47 0.48 0.51 0.53 0.55 0.54 0.56 0.61 0.70 0.80 0.82 0.87 0.97 1.02 1.02 1.04 1.06 1.12 1.18 1.24 1.28 1.34 1.41 1.48 1.56 1.57 1.51 1.49 1.52 1.52 1.53 1.51 1.52 1.52 1.52 1.53 1.54 1.57 1.58 1.59 1.61 1.60 1.57 1.53 1.49 1.49 1.48 1.46 1.38 1.31 1.25 1.23 1.21 1.20 1.23 1.22 1.21 1.24 1.28 1.32 1.32 1.31
0.37 0.44 0.49 0.46 0.38 0.36 0.49 0.53 0.54 0.52 0.53 0.50 0.46 0.52 0.58 0.50 0.42 0.44 0.48 0.57 0.57 0.60 0.60 0.55 0.53 0.54 0.57 0.60 0.62 0.67 0.72 0.72 0.75 0.76 0.82 0.86 0.91 0.88 0.84 0.80 0.82 0.88 0.94 1.05 1.08 1.14 1.11 1.25 1.45 1.55 1.56 1.53 1.52 1.50 1.48 1.45 1.46 1.45 1.46 1.46 1.47 1.50 1.53 1.58 1.62 1.63 1.60 1.56 1.53 1.54 1.54 1.52 1.51 1.50 1.45 1.38 1.36 1.33 1.29 1.26 1.25 1.25 1.26 1.27 1.30 1.31 1.30
0.42 0.42 0.44 0.36 0.39 0.50 0.54 0.56 0.56 0.57 0.55 0.50 0.47 0.50 0.57 0.60 0.60 0.60 0.52 0.54 0.59 0.60 0.62 0.63 0.61 0.62 0.77 0.81 0.82 0.84 0.85 0.86 0.86 0.86 0.95 1.02 1.02 1.05 1.13 1.09 1.03 1.01 1.14 1.11 1.04 1.00 1.09 1.09 1.09 1.08 1.20 1.26 1.29 1.35 1.40 1.39 1.42 1.42 1.42 1.40 1.39 1.44 1.46 1.52 1.56 1.60 1.60 1.59 1.57 1.58 1.56 1.57 1.54 1.51 1.53 1.51 1.45 1.44 1.38 1.34 1.37 1.37 1.35 1.33 1.29 1.29 1.32
0.35 0.39 0.41 0.41 0.51 0.49 0.51 0.54 0.58 0.62 0.56 0.51 0.53 0.48 0.62 0.73 0.70 0.68 0.67 0.57 0.58 0.61 0.64 0.66 0.68 0.77 0.78 0.76 0.83 0.95 0.94 0.96 1.00 0.98 1.03 1.11 1.11 1.09 1.10 1.14 1.17 1.27 1.26 1.13 1.06 1.04 1.03 1.02 1.04 1.09 1.18 1.23 1.22 1.14 1.15 1.24 1.30 1.36 1.38 1.35 1.34 1.36 1.40 1.46 1.52 1.57 1.59 1.58 1.57 1.59 1.64 1.60 1.54 1.52 1.53 1.56 1.57 1.56 1.47 1.38 1.34 1.36 1.35 1.35 1.36 1.35 1.35
0.43 0.38 0.36 0.41 0.41 0.40 0.50 0.61 0.67 0.70 0.70 0.65 0.63 0.60 0.61 0.79 0.84 0.88 0.87 0.72 0.64 0.63 0.67 0.68 0.73 0.74 0.65 0.66 0.82 1.02 1.07 1.09 1.06 1.02 1.02 1.08 1.14 1.17 1.16 1.12 1.03 1.02 1.06 1.03 1.05 1.05 0.92 0.91 0.98 1.13 1.21 1.17 1.21 1.26 1.15 1.04 1.03 1.16 1.25 1.28 1.33 1.35 1.37 1.42 1.48 1.55 1.59 1.58 1.55 1.57 1.61 1.61 1.61 1.59 1.61 1.65 1.63 1.64 1.53 1.45 1.36 1.34 1.40 1.42 1.44 1.44 1.41
0.40 0.40 0.36 0.38 0.38 0.48 0.60 0.63 0.69 0.70 0.69 0.70 0.70 0.61 0.60 0.90 0.98 1.04 1.00 0.91 0.81 0.75 0.74 0.78 0.80 0.68 0.63 0.73 0.91 1.11 1.11 1.08 1.10 1.08 1.08 1.06 1.04 1.05 1.07 1.07 1.04 1.05 1.04 1.07 1.11 1.15 1.13 0.99 0.97 1.00 1.14 1.17 1.15 1.12 1.16 1.19 1.12 0.98 0.98 1.11 1.24 1.29 1.35 1.41 1.46 1.52 1.57 1.57 1.54 1.54 1.57 1.63 1.67 1.64 1.62 1.63 1.69 1.72 1.66 1.60 1.50 1.45 1.45 1.44 1.46 1.49 1.49
0.40 0.40 0.38 0.38 0.47 0.48 0.62 0.70 0.75 0.75 0.73 0.68 0.60 0.47 0.58 0.95 1.04 1.09 1.06 0.98 0.92 0.89 0.88 0.92 0.87 0.77 0.70 0.79 0.92 1.13 1.18 1.16 1.14 1.13 1.08 1.05 1.02 1.07 1.15 1.16 1.10 1.14 1.19 1.10 1.06 1.02 1.03 1.14 1.20 1.11 1.13 1.17 1.12 1.10 1.13 1.15 1.10 1.04 1.02 1.01 1.07 1.19 1.30 1.37 1.42 1.46 1.51 1.52 1.53 1.54 1.58 1.66 1.71 1.71 1.73 1.72 1.70 1.69 1.68 1.67 1.61 1.58 1.53 1.49 1.46 1.48 1.53
0.39 0.39 0.39 0.41 0.48 0.60 0.68 0.74 0.80 0.76 0.73 0.63 0.51 0.50 0.78 1.05 1.10 1.12 1.10 1.02 1.00 0.98 0.94 0.99 0.90 1.02 1.05 1.06 1.13 1.17 1.21 1.16 1.10 1.09 1.08 1.01 0.97 0.97 1.03 1.11 1.12 1.06 1.09 1.06 0.99 1.03 1.05 1.08 1.15 1.18 1.10 1.07 1.08 1.08 1.11 1.10 1.09 1.10 1.11 1.13 1.16 1.15 1.16 1.23 1.32 1.40 1.47 1.48 1.49 1.56 1.64 1.69 1.75 1.76 1.75 1.71 1.71 1.68 1.64 1.66 1.64 1.61 1.57 1.55 1.53 1.53 1.56
0.37 0.38 0.37 0.38 0.48 0.63 0.72 0.79 0.81 0.83 0.67 0.52 0.58 0.95 1.14 1.12 1.10 1.16 1.13 1.06 1.04 1.04 1.04 1.06 1.05 1.08 1.15 1.20 1.23 1.18 1.11 1.07 1.04 1.02 0.99 0.97 0.96 1.00 1.06 1.06 1.06 1.00 1.03 0.91 0.88 0.97 0.97 0.97 0.98 1.08 1.10 0.98 0.99 1.04 1.04 1.06 1.14 1.22 1.18 1.12 1.13 1.15 1.15 1.15 1.20 1.30 1.39 1.46 1.51 1.56 1.65 1.72 1.73 1.73 1.78 1.77 1.73 1.69 1.67 1.64 1.59 1.56 1.57 1.56 1.53 1.53 1.56
0.39 0.38 0.36 0.36 0.35 0.58 0.73 0.76 0.74 0.83 0.67 0.79 0.99 1.08 1.10 1.11 1.11 1.10 1.11 1.12 1.11 1.11 1.06 1.12 1.12 1.12 1.13 1.13 1.12 1.12 1.11 1.05 0.99 0.97 0.95 0.93 0.94 0.96 0.95 0.95 0.98 0.99 0.95 0.96 0.87 0.99 0.97 0.95 0.97 0.98 0.99 0.98 0.99 0.99 0.99 1.08 1.22 1.25 1.18 1.12 1.08 1.08 1.10 1.11 1.13 1.20 1.30 1.38 1.47 1.56 1.62 1.69 1.71 1.71 1.77 1.76 1.73 1.71 1.65 1.61 1.58 1.54 1.54 1.54 1.51 1.48 1.51
0.34 0.34 0.33 0.39 0.62 0.67 0.76 0.75 0.66 0.80 0.92 1.06 1.07 1.10 1.04 1.08 1.08 1.08 1.10 1.12 1.13 1.15 1.12 1.09 1.09 1.09 1.09 1.10 1.09 1.08 1.07 1.05 1.01 0.98 0.97 0.96 0.95 0.94 0.95 0.97 0.98 0.97 0.96 0.99 1.06 1.11 1.07 1.02 1.02 1.09 1.06 1.08 1.08 0.98 0.92 1.09 1.18 1.25 1.23 1.19 1.13 1.10 1.10 1.13 1.16 1.20 1.28 1.37 1.45 1.52 1.58 1.64 1.68 1.69 1.72 1.74 1.74 1.70 1.67 1.61 1.57 1.53 1.53 1.54 1.51 1.47 1.45
0.43 0.46 0.51 0.62 0.71 0.73 0.77 0.80 0.80 0.83 0.94 1.06 1.05 1.06 1.06 1.03 1.06 1.10 1.09 1.11 1.15 1.16 1.15 1.11 1.06 1.03 1.04 1.04 1.05 1.00 0.99 0.98 0.96 0.94 0.94 0.96 0.96 0.95 0.93 0.91 0.94 0.95 0.97 1.01 1.12 1.10 1.08 1.06 1.08 1.14 1.17 1.11 1.07 1.02 1.10 1.15 1.13 1.18 1.22 1.20 1.19 1.15 1.16 1.19 1.22 1.26 1.31 1.36 1.43 1.51 1.56 1.61 1.59 1.63 1.66 1.71 1.69 1.72 1.70 1.64 1.60 1.54 1.55 1.56 1.52 1.52 1.52
0.57 0.56 0.60 0.64 0.68 0.70 0.72 0.79 0.81 0.83 0.88 0.96 1.02 1.00 1.03 1.01 1.05 1.06 1.04 1.09 1.11 1.13 1.17 1.11 1.06 1.03 1.03 0.99 0.98 0.98 1.00 0.95 0.95 0.95 0.95 0.95 0.96 0.98 0.93 0.94 0.93 0.91 1.06 1.09 1.15 1.05 1.04 1.07 1.06 1.17 1.21 1.20 1.11 1.12 1.21 1.21 1.20 1.17 1.23 1.22 1.20 1.20 1.22 1.24 1.27 1.31 1.33 1.37 1.43 1.49 1.55 1.60 1.60 1.64 1.63 1.66 1.65 1.70 1.71 1.67 1.65 1.61 1.59 1.60 1.59 1.59 1.59
0.44 0.41 0.58 0.58 0.59 0.64 0.69 0.73 0.78 0.81 0.90 0.88 0.93 0.98 1.01 1.01 1.01 1.02 1.04 1.01 1.05 1.08 1.11 1.08 1.07 1.07 1.07 1.03 1.01 1.01 1.01 0.96 0.92 0.93 0.96 0.96 0.98 0.98 0.96 1.01 0.98 1.00 1.09 1.09 1.06 1.04 1.00 1.06 1.07 1.11 1.16 1.21 1.21 1.24 1.25 1.28 1.29 1.26 1.23 1.24 1.26 1.26 1.26 1.28 1.33 1.36 1.35 1.38 1.44 1.50 1.56 1.61 1.64 1.66 1.68 1.67 1.66 1.65 1.67 1.68 1.68 1.67 1.65 1.64 1.65 1.67 1.66
0.45 0.47 0.54 0.56 0.59 0.61 0.64 0.66 0.69 0.72 0.79 0.86 0.89 0.92 0.97 1.01 1.03 0.98 0.97 1.00 0.99 1.04 1.04 1.07 1.05 1.02 1.08 1.05 1.02 1.00 0.99 0.97 0.97 0.96 0.98 0.98 1.03 1.06 1.10 1.10 1.09 1.09 1.12 1.10 1.08 1.05 1.03 1.07 1.09 1.07 1.10 1.15 1.21 1.25 1.29 1.33 1.34 1.35 1.32 1.30 1.30 1.33 1.35 1.36 1.35 1.36 1.39 1.43 1.46 1.49 1.55 1.59 1.62 1.65 1.68 1.68 1.64 1.62 1.64 1.65 1.64 1.64 1.66 1.66 1.66 1.68 1.69
0.46 0.50 0.53 0.58 0.58 0.59 0.62 0.64 0.70 0.72 0.78 0.80 0.82 0.88 0.89 0.93 0.98 0.94 0.90 0.90 0.89 0.93 0.99 1.08 1.04 0.98 0.96 1.06 1.04 1.02 1.03 1.04 1.01 1.01 1.01 1.04 1.07 1.09 1.10 1.13 1.11 1.06 1.10 1.11 1.11 1.08 1.06 1.09 1.09 1.08 1.07 1.11 1.18 1.22 1.26 1.32 1.32 1.31 1.34 1.36 1.37 1.39 1.42 1.44 1.43 1.44 1.43 1.45 1.51 1.52 1.57 1.63 1.69 1.72 1.70 1.70 1.67 1.70 1.79 1.83 1.79 1.74 1.73 1.75 1.79 1.83 1.82
0.37 0.40 0.48 0.57 0.47 0.49 0.57 0.64 0.65 0.69 0.76 0.77 0.78 0.82 0.84 0.86 0.91 0.94 0.86 0.84 0.84 0.84 0.93 0.98 0.99 0.90 0.86 0.95 1.06 1.04 1.07 1.07 1.07 1.07 1.09 1.10 1.10 1.12 1.14 1.18 1.17 1.14 1.14 1.14 1.11 1.09 1.09 1.11 1.11 1.10 1.11 1.13 1.18 1.24 1.28 1.34 1.35 1.29 1.34 1.39 1.40 1.37 1.40 1.40 1.41 1.43 1.42 1.43 1.48 1.57 1.60 1.62 1.61 1.66 1.76 1.78 1.85 1.80 1.76 1.83 1.90 1.93 1.95 1.90 1.93 1.91 1.83
0.37 0.45 0.51 0.54 0.55 0.56 0.60 0.64 0.68 0.69 0.72 0.73 0.73 0.74 0.77 0.80 0.85 0.86 0.83 0.80 0.77 0.76 0.77 0.87 0.93 0.90 0.86 0.85 0.94 1.00 1.04 1.09 1.12 1.15 1.16 1.15 1.11 1.11 1.14 1.12 1.13 1.15 1.14 1.18 1.16 1.16 1.16 1.18 1.13 1.14 1.13 1.15 1.19 1.27 1.33 1.37 1.38 1.35 1.37 1.38 1.38 1.37 1.38 1.39 1.43 1.45 1.45 1.47 1.51 1.56 1.64 1.62 1.60 1.60 1.63 1.72 1.86 1.90 1.90 1.90 1.90 1.91 1.94 1.98 2.01 2.02 1.97
0.47 0.51 0.53 0.55 0.54 0.52 0.59 0.64 0.66 0.66 0.70 0.71 0.70 0.72 0.74 0.76 0.78 0.80 0.82 0.85 0.80 0.72 0.71 0.71 0.80 0.88 0.89 0.88 0.89 0.97 1.05 1.13 1.16 1.15 1.19 1.22 1.21 1.18 1.18 1.16 1.15 1.15 1.18 1.21 1.21 1.18 1.23 1.24 1.22 1.20 1.18 1.20 1.21 1.28 1.34 1.39 1.42 1.41 1.40 1.39 1.37 1.37 1.39 1.42 1.46 1.47 1.50 1.54 1.56 1.58 1.63 1.63 1.64 1.63 1.63 1.63 1.67 1.78 1.81 1.85 1.90 1.92 1.94 1.93 1.92 1.91 1.93
0.44 0.52 0.54 0.54 0.52 0.54 0.58 0.62 0.63 0.64 0.67 0.69 0.66 0.67 0.69 0.70 0.71 0.73 0.74 0.80 0.88 0.85 0.74 0.69 0.70 0.80 0.86 0.90 0.90 0.94 0.97 1.08 1.16 1.19 1.22 1.23 1.23 1.20 1.19 1.20 1.20 1.21 1.21 1.24 1.25 1.29 1.28 1.25 1.24 1.24 1.22 1.24 1.26 1.24 1.30 1.38 1.42 1.41 1.43 1.42 1.42 1.45 1.48 1.50 1.52 1.55 1.57 1.59 1.60 1.61 1.64 1.66 1.68 1.67 1.64 1.64 1.60 1.60 1.69 1.74 1.75 1.78 1.80 1.82 1.81 1.79 1.75
0.49 0.49 0.52 0.53 0.53 0.51 0.54 0.57 0.57 0.58 0.60 0.63 0.63 0.65 0.67 0.70 0.71 0.72 0.74 0.79 0.85 0.87 0.82 0.75 0.70 0.76 0.86 0.88 0.91 0.98 0.98 1.03 1.16 1.19 1.20 1.23 1.24 1.24 1.22 1.18 1.25 1.30 1.30 1.29 1.31 1.32 1.32 1.30 1.26 1.25 1.24 1.28 1.30 1.26 1.27 1.34 1.39 1.40 1.42 1.45 1.48 1.50 1.52 1.53 1.53 1.55 1.57 1.58 1.62 1.64 1.68 1.72 1.73 1.72 1.70 1.69 1.69 1.64 1.58 1.56 1.59 1.64 1.67 1.66 1.63 1.61 1.60
0.49 0.50 0.49 0.45 0.43 0.44 0.49 0.48 0.47 0.55 0.57 0.58 0.59 0.61 0.63 0.64 0.68 0.70 0.71 0.72 0.78 0.84 0.82 0.78 0.73 0.79 0.86 0.92 0.96 0.99 0.96 1.03 1.12 1.18 1.20 1.23 1.23 1.25 1.28 1.30 1.31 1.32 1.31 1.31 1.31 1.32 1.33 1.31 1.29 1.27 1.27 1.32 1.36 1.38 1.35 1.28 1.31 1.35 1.40 1.42 1.45 1.48 1.51 1.53 1.53 1.54 1.55 1.55 1.58 1.63 1.67 1.72 1.71 1.71 1.68 1.67 1.67 1.61 1.52 1.47 1.43 1.38 1.34 1.34 1.35 1.33 1.30
0.47 0.47 0.48 0.39 0.34 0.37 0.44 0.50 0.53 0.55 0.57 0.57 0.57 0.58 0.60 0.61 0.61 0.62 0.64 0.67 0.68 0.74 0.80 0.78 0.72 0.75 0.85 0.93 0.97 0.98 1.01 1.03 1.09 1.18 1.21 1.23 1.30 1.35 1.36 1.35 1.33 1.31 1.31 1.30 1.29 1.31 1.31 1.30 1.30 1.29 1.29 1.36 1.41 1.41 1.40 1.37 1.35 1.34 1.34 1.31 1.32 1.37 1.44 1.49 1.50 1.50 1.52 1.52 1.56 1.58 1.57 1.59 1.61 1.56 1.53 1.50 1.50 1.55 1.55 1.49 1.42 1.36 1.32 1.28 1.22 1.18 1.16
0.50 0.47 0.46 0.44 0.41 0.44 0.48 0.51 0.51 0.49 0.49 0.53 0.55 0.55 0.56 0.56 0.56 0.55 0.56 0.58 0.62 0.65 0.69 0.73 0.71 0.74 0.85 0.93 0.99 1.01 1.00 1.05 1.11 1.18 1.23 1.30 1.35 1.38 1.40 1.40 1.35 1.32 1.30 1.28 1.27 1.28 1.29 1.30 1.30 1.29 1.30 1.41 1.44 1.44 1.43 1.39 1.35 1.33 1.28 1.23 1.18 1.20 1.27 1.34 1.40 1.43 1.46 1.46 1.46 1.48 1.52 1.53 1.51 1.45 1.38 1.36 1.35 1.36 1.38 1.36 1.34 1.32 1.25 1.18 1.14 1.13 1.11
0.64 0.57 0.50 0.45 0.43 0.45 0.44 0.43 0.43 0.45 0.47 0.48 0.48 0.48 0.50 0.50 0.49 0.51 0.52 0.54 0.56 0.59 0.66 0.69 0.64 0.67 0.85 0.90 1.02 1.03 1.01 1.04 1.12 1.22 1.29 1.33 1.36 1.40 1.44 1.42 1.37 1.32 1.27 1.23 1.23 1.26 1.26 1.27 1.29 1.29 1.34 1.42 1.45 1.43 1.40 1.38 1.39 1.36 1.30 1.20 1.13 1.14 1.16 1.21 1.23 1.27 1.29 1.28 1.25 1.23 1.26 1.29 1.27 1.24 1.21 1.22 1.23 1.22 1.18 1.16 1.14 1.09 1.04 1.06 1.05 1.00 0.96
0.77 0.72 0.62 0.54 0.50 0.48 0.44 0.41 0.42 0.43 0.45 0.47 0.47 0.46 0.46 0.46 0.45 0.45 0.46 0.50 0.52 0.54 0.60 0.62 0.59 0.63 0.82 0.90 1.01 1.09 1.11 1.11 1.17 1.23 1.29 1.33 1.37 1.41 1.43 1.40 1.30 1.22 1.20 1.20 1.22 1.22 1.23 1.24 1.29 1.34 1.41 1.48 1.48 1.46 1.44 1.39 1.36 1.35 1.31 1.25 1.22 1.20 1.20 1.22 1.20 1.20 1.20 1.18 1.14 1.11 1.09 1.08 1.08 1.08 1.07 1.09 1.09 1.08 1.05 1.05 1.05 1.02 1.04 1.05 1.04 1.01 1.03
0.81 0.77 0.70 0.62 0.57 0.52 0.48 0.47 0.46 0.44 0.44 0.46 0.46 0.45 0.45 0.44 0.43 0.42 0.44 0.46 0.48 0.51 0.55 0.56 0.54 0.60 0.83 0.94 0.98 1.06 1.12 1.11 1.14 1.21 1.26 1.32 1.39 1.43 1.45 1.43 1.37 1.31 1.24 1.21 1.21 1.22 1.23 1.23 1.25 1.34 1.43 1.48 1.50 1.48 1.46 1.43 1.39 1.31 1.30 1.30 1.26 1.25 1.24 1.23 1.19 1.18 1.18 1.17 1.16 1.12 1.12 1.12 1.12 1.13 1.11 1.11 1.09 1.09 1.11 1.11 1.08 1.08 1.09 1.08 1.09 1.09 1.12
0.80 0.76 0.72 0.70 0.66 0.62 0.57 0.55 0.51 0.47 0.47 0.47 0.48 0.49 0.50 0.50 0.50 0.49 0.49 0.50 0.50 0.51 0.52 0.51 0.52 0.58 0.83 0.94 0.98 1.03 1.07 1.09 1.10 1.16 1.18 1.22 1.28 1.36 1.41 1.43 1.38 1.31 1.27 1.23 1.22 1.23 1.23 1.22 1.27 1.35 1.38 1.44 1.48 1.51 1.48 1.46 1.40 1.32 1.33 1.34 1.31 1.28 1.25 1.24 1.23 1.22 1.22 1.21 1.20 1.19 1.19 1.19 1.19 1.17 1.16 1.16 1.16 1.15 1.14 1.14 1.11 1.11 1.15 1.19 1.18 1.17 1.17
0.80 0.79 0.81 0.82 0.77 0.71 0.65 0.62 0.62 0.58 0.55 0.53 0.54 0.56 0.56 0.56 0.57 0.57 0.56 0.57 0.55 0.54 0.54 0.53 0.53 0.60 0.81 0.89 0.94 1.01 1.06 1.04 1.02 1.08 1.15 1.23 1.31 1.36 1.37 1.34 1.32 1.28 1.24 1.22 1.23 1.23 1.24 1.24 1.27 1.31 1.35 1.38 1.41 1.45 1.48 1.47 1.44 1.42 1.35 1.31 1.30 1.27 1.24 1.25 1.26 1.25 1.23 1.23 1.24 1.25 1.23 1.21 1.21 1.20 1.21 1.20 1.20 1.20 1.19 1.17 1.15 1.15 1.16 1.18 1.20 1.21 1.23
0.83 0.86 0.90 0.91 0.92 0.90 0.87 0.80 0.71 0.64 0.59 0.56 0.57 0.59 0.61 0.62 0.63 0.62 0.63 0.62 0.58 0.58 0.59 0.57 0.58 0.64 0.81 0.90 0.96 1.01 1.05 1.04 1.06 1.10 1.13 1.17 1.21 1.28 1.35 1.37 1.37 1.35 1.32 1.31 1.28 1.26 1.26 1.27 1.28 1.29 1.31 1.32 1.35 1.40 1.43 1.40 1.35 1.33 1.36 1.35 1.31 1.29 1.28 1.27 1.26 1.24 1.23 1.24 1.25 1.23 1.22 1.21 1.22 1.24 1.25 1.24 1.22 1.22 1.22 1.21 1.20 1.20 1.20 1.19 1.20 1.23 1.24
0.82 0.80 0.79 0.85 0.90 0.91 0.91 0.89 0.86 0.82 0.77 0.69 0.65 0.64 0.64 0.65 0.66 0.67 0.66 0.65 0.65 0.65 0.62 0.65 0.67 0.72 0.82 0.93 0.99 1.04 1.10 1.15 1.10 1.08 1.11 1.13 1.16 1.17 1.19 1.24 1.31 1.28 1.28 1.27 1.29 1.30 1.29 1.29 1.29 1.28 1.29 1.30 1.31 1.35 1.38 1.38 1.34 1.31 1.27 1.27 1.29 1.31 1.30 1.27 1.26 1.28 1.28 1.26 1.23 1.23 1.22 1.24 1.25 1.26 1.25 1.25 1.24 1.22 1.20 1.19 1.20 1.21 1.21 1.21 1.21 1.22 1.23
0.81 0.81 0.81 0.80 0.83 0.89 0.90 0.90 0.89 0.89 0.86 0.83 0.82 0.79 0.74 0.73 0.73 0.73 0.73 0.70 0.69 0.69 0.71 0.70 0.71 0.75 0.87 1.02 1.07 1.13 1.14 1.17 1.18 1.15 1.12 1.15 1.16 1.14 1.11 1.13 1.17 1.21 1.26 1.23 1.27 1.29 1.28 1.29 1.30 1.28 1.27 1.27 1.27 1.28 1.32 1.33 1.31 1.29 1.26 1.24 1.24 1.24 1.25 1.25 1.26 1.25 1.24 1.25 1.23 1.23 1.24 1.23 1.21 1.21 1.21 1.20 1.20 1.20 1.21 1.21 1.21 1.22 1.22 1.22 1.21 1.18 1.16
0.79 0.80 0.81 0.81 0.81 0.81 0.86 0.89 0.90 0.90 0.90 0.89 0.89 0.89 0.87 0.85 0.84 0.82 0.79 0.77 0.77 0.79 0.75 0.74 0.77 0.85 1.01 1.08 1.10 1.10 1.11 1.17 1.18 1.16 1.11 1.10 1.07 1.05 1.07 1.06 1.04 1.08 1.13 1.20 1.28 1.25 1.23 1.26 1.29 1.28 1.26 1.25 1.25 1.27 1.29 1.30 1.29 1.27 1.26 1.25 1.23 1.22 1.22 1.22 1.22 1.22 1.22 1.21 1.21 1.20 1.18 1.17 1.16 1.17 1.19 1.20 1.20 1.19 1.19 1.18 1.18 1.17 1.16 1.17 1.16 1.15 1.14
0.75 0.78 0.80 0.81 0.82 0.81 0.81 0.85 0.90 0.91 0.91 0.88 0.89 0.90 0.91 0.92 0.88 0.89 0.88 0.84 0.83 0.79 0.76 0.78 0.90 0.98 1.02 1.05 1.06 1.07 1.10 1.13 1.12 1.10 1.09 1.06 1.06 1.01 0.99 1.03 1.05 1.06 1.08 1.16 1.19 1.18 1.18 1.19 1.21 1.20 1.19 1.20 1.22 1.24 1.26 1.27 1.26 1.23 1.22 1.20 1.19 1.18 1.18 1.17 1.16 1.15 1.14 1.13 1.10 1.09 1.08 1.07 1.07 1.06 1.06 1.07 1.08 1.09 1.09 1.09 1.09 1.09 1.09 1.10 1.10 1.10 1.10
0.74 0.75 0.75 0.78 0.79 0.80 0.80 0.79 0.82 0.86 0.90 0.91 0.90 0.88 0.90 0.91 0.90 0.87 0.87 0.86 0.85 0.88 0.87 0.90 0.91 0.92 0.97 1.02 1.03 1.02 1.06 1.09 1.11 1.09 1.08 1.04 1.01 1.00 1.02 1.02 1.04 1.07 1.10 1.12 1.14 1.15 1.15 1.16 1.16 1.13 1.10 1.12 1.17 1.20 1.22 1.22 1.22 1.19 1.16 1.15 1.13 1.13 1.12 1.11 1.10 1.08 1.08 1.07 1.06 1.05 1.04 1.03 1.04 1.04 1.04 1.05 1.05 1.06 1.06 1.07 1.07 1.07 1.07 1.07 1.07 1.08 1.08
0.75 0.75 0.75 0.75 0.76 0.78 0.79 0.80 0.80 0.82 0.84 0.85 0.87 0.87 0.90 0.93 0.91 0.86 0.83 0.86 0.86 0.88 0.86 0.86 0.91 0.98 1.01 1.02 0.99 0.99 1.06 1.05 1.07 1.07 1.08 1.04 1.01 1.00 0.95 0.92 1.02 1.05 1.07 1.10 1.13 1.14 1.14 1.14 1.13 1.11 1.10 1.11 1.13 1.15 1.16 1.17 1.16 1.15 1.14 1.14 1.14 1.13 1.13 1.12 1.10 1.09 1.08 1.07 1.05 1.03 1.01 1.01 1.01 1.01 1.01 1.02 1.02 1.03 1.03 1.03 1.03 1.04 1.04 1.04 1.04 1.06 1.08
0.74 0.75 0.74 0.74 0.74 0.75 0.76 0.78 0.79 0.75 0.74 0.80 0.84 0.86 0.85 0.87 0.87 0.84 0.88 0.87 0.87 0.89 0.87 0.92 0.98 1.00 1.03 1.03 1.03 1.02 1.01 1.01 1.01 1.00 1.01 1.00 0.97 0.94 0.91 0.94 1.02 1.03 1.06 1.07 1.08 1.09 1.10 1.10 1.09 1.09 1.09 1.10 1.11 1.12 1.13 1.14 1.14 1.14 1.13 1.12 1.11 1.11 1.09 1.07 1.05 1.04 1.05 1.04 1.03 1.01 1.01 1.01 1.00 1.00 1.00 1.00 1.00 1.01 1.02 1.02 1.02 1.03 1.04 1.04 1.04 1.05 1.07
0.72 0.72 0.73 0.73 0.73 0.74 0.75 0.75 0.76 0.76 0.77 0.80 0.83 0.84 0.85 0.86 0.85 0.85 0.85 0.84 0.82 0.84 0.86 0.90 0.94 0.98 1.00 1.01 1.00 0.98 0.98 1.00 0.99 0.97 0.95 0.98 1.00 1.00 0.96 0.96 0.99 1.01 1.02 1.02 1.03 1.02 1.03 1.04 1.04 1.03 1.03 1.03 1.04 1.05 1.06 1.07 1.08 1.07 1.06 1.05 1.05 1.03 1.03 1.02 1.01 1.01 1.00 0.99 0.98 0.98 0.98 0.97 0.96 0.96 0.96 0.96 0.96 0.97 0.98 0.98 0.98 1.00 1.01 1.02 1.03 1.03 1.03
0.68 0.71 0.74 0.74 0.74 0.75 0.74 0.75 0.75 0.76 0.76 0.78 0.82 0.83 0.85 0.84 0.83 0.81 0.79 0.78 0.76 0.78 0.84 0.88 0.91 0.93 0.94 0.94 0.94 0.93 0.93 0.94 0.96 0.95 0.91 0.90 0.93 0.97 1.01 1.00 1.00 1.02 1.01 1.01 1.00 0.98 0.97 0.97 0.97 0.99 1.00 1.00 1.00 1.00 1.00 1.00 1.01 1.00 1.00 0.99 0.98 0.98 0.97 0.97 0.97 0.98 0.98 0.97 0.97 0.96 0.95 0.95 0.95 0.94 0.94 0.93 0.93 0.93 0.92 0.92 0.92 0.93 0.95 0.96 0.97 0.98 1.00
0.66 0.66 0.68 0.72 0.75 0.75 0.74 0.74 0.73 0.74 0.77 0.79 0.80 0.81 0.82 0.82 0.82 0.79 0.77 0.76 0.74 0.76 0.81 0.85 0.87 0.88 0.89 0.90 0.90 0.90 0.90 0.93 0.95 0.95 0.92 0.90 0.88 0.87 0.93 0.96 0.96 0.95 0.95 0.96 0.95 0.95 0.95 0.95 0.95 0.96 0.97 0.98 0.98 0.97 0.96 0.96 0.95 0.95 0.96 0.96 0.96 0.95 0.95 0.94 0.94 0.94 0.94 0.93 0.93 0.93 0.93 0.92 0.92 0.92 0.92 0.92 0.92 0.91 0.90 0.89 0.88 0.87 0.86 0.86 0.87 0.88 0.90
0.62 0.63 0.64 0.65 0.67 0.70 0.75 0.77 0.78 0.79 0.78 0.76 0.76 0.78 0.80 0.81 0.81 0.80 0.78 0.75 0.76 0.80 0.83 0.84 0.85 0.86 0.87 0.87 0.88 0.88 0.88 0.90 0.92 0.94 0.94 0.94 0.92 0.92 0.93 0.90 0.90 0.88 0.88 0.87 0.88 0.89 0.92 0.94 0.95 0.96 0.96 0.96 0.96 0.95 0.95 0.95 0.95 0.94 0.93 0.93 0.93 0.93 0.93 0.93 0.94 0.94 0.94 0.93 0.92 0.91 0.91 0.91 0.91 0.90 0.90 0.89 0.90 0.91 0.90 0.89 0.87 0.86 0.85 0.83 0.82 0.82 0.82
0.56 0.58 0.60 0.62 0.64 0.66 0.69 0.71 0.74 0.75 0.75 0.75 0.72 0.73 0.76 0.79 0.80 0.81 0.80 0.80 0.80 0.80 0.81 0.82 0.83 0.83 0.84 0.84 0.84 0.84 0.83 0.83 0.85 0.89 0.91 0.93 0.94 0.93 0.92 0.90 0.88 0.87 0.87 0.87 0.88 0.89 0.90 0.90 0.90 0.91 0.91 0.92 0.92 0.92 0.92 0.92 0.92 0.92 0.91 0.91 0.91 0.91 0.90 0.90 0.89 0.88 0.88 0.87 0.86 0.86 0.86 0.85 0.84 0.84 0.83 0.83 0.84 0.83 0.84 0.84 0.85 0.85 0.84 0.83 0.82 0.81 0.80
0.51 0.52 0.55 0.57 0.58 0.61 0.63 0.65 0.66 0.66 0.68 0.69 0.71 0.73 0.76 0.77 0.77 0.77 0.79 0.81 0.80 0.79 0.79 0.79 0.80 0.80 0.81 0.81 0.81 0.81 0.80 0.79 0.76 0.78 0.83 0.84 0.86 0.88 0.88 0.86 0.86 0.86 0.85 0.85 0.86 0.86 0.86 0.85 0.86 0.86 0.85 0.85 0.85 0.85 0.86 0.86 0.86 0.86 0.86 0.86 0.86 0.86 0.85 0.85 0.84 0.83 0.82 0.81 0.80 0.78 0.77 0.77 0.77 0.76 0.75 0.74 0.73 0.74 0.74 0.75 0.75 0.75 0.75 0.77 0.78 0.78 0.76
0.45 0.46 0.50 0.53 0.54 0.55 0.56 0.58 0.59 0.61 0.63 0.68 0.69 0.71 0.73 0.74 0.75 0.76 0.75 0.74 0.75 0.76 0.78 0.78 0.78 0.78 0.78 0.78 0.77 0.77 0.78 0.79 0.76 0.73 0.76 0.77 0.77 0.77 0.79 0.78 0.77 0.77 0.77 0.77 0.77 0.78 0.80 0.79 0.77 0.75 0.75 0.75 0.76 0.76 0.76 0.76 0.77 0.77 0.77 0.77 0.76 0.76 0.75 0.74 0.74 0.74 0.74 0.74 0.75 0.75 0.74 0.74 0.73 0.73 0.72 0.72 0.71 0.71 0.70 0.69 0.68 0.68 0.68 0.68 0.68 0.68 0.69
0.44 0.44 0.43 0.44 0.46 0.49 0.51 0.51 0.52 0.55 0.59 0.62 0.64 0.67 0.69 0.70 0.68 0.69 0.73 0.73 0.71 0.71 0.72 0.73 0.75 0.76 0.75 0.75 0.75 0.73 0.73 0.73 0.74 0.74 0.73 0.73 0.72 0.71 0.72 0.71 0.69 0.66 0.67 0.69 0.70 0.70 0.70 0.70 0.70 0.69 0.68 0.67 0.67 0.66 0.65 0.65 0.66 0.68 0.69 0.69 0.70 0.69 0.69 0.69 0.70 0.70 0.70 0.70 0.70 0.69 0.69 0.69 0.69 0.69 0.68 0.67 0.66 0.65 0.64 0.63 0.62 0.62 0.61 0.61 0.60 0.58 0.56
0.43 0.43 0.42 0.41 0.41 0.42 0.46 0.49 0.48 0.49 0.52 0.54 0.57 0.61 0.63 0.63 0.64 0.66 0.67 0.69 0.70 0.67 0.65 0.67 0.68 0.70 0.71 0.71 0.70 0.69 0.70 0.70 0.71 0.71 0.71 0.71 0.72 0.71 0.69 0.68 0.68 0.66 0.63 0.62 0.63 0.64 0.64 0.63 0.62 0.62 0.62 0.63 0.63 0.63 0.61 0.59 0.58 0.59 0.60 0.61 0.61 0.62 0.62 0.63 0.63 0.63 0.64 0.64 0.64 0.63 0.63 0.63 0.62 0.61 0.61 0.61 0.61 0.61 0.59 0.57 0.55 0.55 0.54 0.52 0.52 0.53 0.52
0.43 0.44 0.44 0.42 0.41 0.40 0.40 0.42 0.46 0.46 0.46 0.47 0.49 0.51 0.53 0.54 0.55 0.59 0.62 0.65 0.65 0.64 0.63 0.62 0.62 0.64 0.67 0.67 0.67 0.67 0.68 0.68 0.68 0.68 0.69 0.68 0.67 0.68 0.69 0.69 0.68 0.67 0.65 0.64 0.64 0.64 0.64 0.65 0.64 0.63 0.62 0.61 0.60 0.60 0.59 0.58 0.57 0.57 0.57 0.57 0.57 0.58 0.58 0.58 0.59 0.58 0.57 0.57 0.56 0.56 0.57 0.58 0.57 0.56 0.55 0.54 0.54 0.53 0.54 0.54 0.52 0.51 0.51 0.49 0.48 0.48 0.47
Wind_Speed
26 24 24 20 17 23 30 32 31 31 34 37 33 27 25 22 20 19 20 20 18 17 16 16 16 15 14 14 12 11 12 14 20 25 24 24 24 22 22 24 25 25 24 23 23 24 24 24 25 24 24 24 24 24 24 24 24 24 24 24 25 25 25 25 26 26 25 25 25 25 25 25 25 24 24 24 24 23 23 23 22 22 21 21 20 20 19
27 24 24 22 18 19 22 26 30 29 30 36 36 29 24 23 21 19 20 20 18 16 14 14 14 15 15 14 11 11 11 14 18 21 22 23 23 21 21 23 24 24 23 22 22 23 23 24 24 24 23 23 24 23 23 23 23 23 23 24 24 24 25 25 25 26 26 25 25 25 25 26 26 25 25 24 24 24 24 23 23 22 22 21 21 20 19
27 25 24 22 20 19 20 22 25 25 25 30 36 33 26 23 22 20 20 18 16 16 16 15 14 15 14 12 11 10 11 13 16 19 21 23 22 21 21 22 22 23 22 22 22 23 23 24 24 24 23 23 24 24 23 23 24 23 23 23 24 24 24 25 25 25 25 25 25 25 25 25 26 26 25 25 24 24 24 23 23 22 22 22 21 21 20
26 26 26 24 21 20 22 22 23 23 21 23 31 34 28 23 23 23 20 17 17 19 19 16 15 15 14 13 12 12 12 11 13 17 20 21 21 22 21 21 20 21 21 21 22 22 24 24 24 24 23 23 24 25 24 24 24 24 23 23 23 24 24 25 25 25 25 25 25 25 25 25 25 26 26 25 25 25 24 24 23 23 23 23 22 21 20
26 25 26 25 21 20 22 23 22 22 18 17 25 33 30 24 22 23 21 20 20 21 19 18 17 15 15 15 15 14 12 11 13 16 17 18 19 20 19 19 18 18 18 19 20 21 23 24 24 24 24 24 24 25 25 24 24 24 24 23 23 23 24 24 24 25 25 25 25 26 26 26 25 25 26 26 26 25 25 25 24 24 23 23 23 22 21
26 25 25 23 20 21 22 21 21 20 15 12 17 26 29 24 21 21 22 21 20 19 18 20 21 18 17 17 15 14 14 13 14 15 15 17 17 16 16 15 16 16 16 16 18 19 21 22 23 23 24 24 24 24 24 24 24 24 24 23 22 22 23 23 23 24 24 25 25 25 26 26 26 26 26 26 26 26 26 25 25 24 24 24 23 23 22
26 25 25 24 22 23 22 20 19 17 14 13 15 17 20 20 19 20 23 24 21 19 19 20 22 20 17 16 14 13 14 15 15 14 14 15 15 14 13 13 14 14 13 13 14 15 17 18 19 21 23 24 24 24 24 24 24 24 23 23 22 22 22 23 23 23 24 24 24 25 26 26 27 27 27 27 27 27 26 26 26 25 25 25 24 24 24
24 24 26 26 25 24 21 18 16 14 13 16 17 15 15 17 16 17 22 25 24 22 20 20 22 20 17 15 14 13 13 15 15 13 12 13 13 13 12 13 13 12 12 13 13 14 15 15 16 18 20 23 23 23 24 24 23 23 23 23 23 22 23 23 23 24 24 23 23 24 24 26 27 27 27 27 28 27 27 27 27 26 26 26 25 25 25
23 23 25 26 25 24 20 17 16 15 13 14 17 17 15 16 16 15 18 23 25 23 21 21 22 20 18 16 15 13 14 15 14 13 12 12 12 12 11 11 11 11 11 12 12 13 14 15 15 16 17 20 22 22 23 24 23 23 23 23 23 23 23 23 23 24 24 24 23 23 23 24 25 27 28 28 28 28 28 28 27 27 27 26 26 26 26
23 23 24 24 24 23 21 17 17 17 14 14 17 19 16 15 16 15 16 19 22 22 22 22 22 21 19 18 17 15 15 15 14 13 12 11 11 11 11 10 10 10 10 11 11 12 14 14 15 15 15 17 19 20 22 23 24 24 23 24 24 24 24 24 24 24 24 24 24 23 24 23 23 25 27 28 29 29 29 28 28 28 27 26 26 26 26
24 24 25 24 23 22 20 18 19 19 16 16 19 18 15 15 16 16 17 18 20 21 21 21 23 23 22 21 19 16 16 16 15 14 13 12 11 11 10 11 11 10 10 11 11 11 12 13 15 15 16 16 17 18 20 21 23 24 24 24 24 24 25 25 25 25 25 24 24 24 24 24 23 23 24 26 28 29 29 28 28 27 27 26 26 26 26
25 25 25 24 22 21 19 19 20 20 20 19 20 18 17 17 17 17 18 19 20 21 21 21 23 24 24 23 21 18 17 16 16 15 14 13 12 11 10 11 11 11 11 11 11 11 12 13 15 15 16 16 17 17 18 20 21 23 24 25 24 24 25 25 25 26 25 24 24 24 25 24 23 23 23 24 25 26 27 27 27 27 27 26 26 26 26
26 25 25 24 23 22 20 19 18 20 22 21 20 19 20 20 18 18 19 19 20 20 21 22 23 23 22 22 21 19 17 16 15 15 14 14 13 12 11 11 12 12 12 12 12 13 13 14 15 16 16 16 17 17 17 18 19 20 22 24 24 24 24 24 25 25 25 24 23 24 24 24 23 22 22 22 22 23 24 25 26 27 27 27 26 26 25
28 27 25 24 23 21 20 19 17 18 23 23 20 21 22 21 19 19 19 19 19 20 21 21 22 21 20 19 18 17 16 16 16 15 15 14 13 13 13 12 13 14 14 13 14 14 13 14 15 16 16 16 17 17 16 16 17 17 19 22 23 23 23 23 24 25 24 23 23 23 23 23 23 22 22 21 22 22 23 24 25 26 26 26 26 26 25
27 27 26 24 23 21 20 20 18 19 23 24 22 22 22 20 19 19 20 20 20 20 21 21 21 20 19 17 17 16 16 16 16 16 16 16 15 14 14 13 14 15 15 15 15 15 14 14 15 15 16 16 17 16 15 15 16 16 16 18 21 22 22 22 23 24 24 23 22 22 22 23 23 23 22 22 22 22 23 23 24 25 25 25 26 26 25
24 26 25 24 24 23 20 19 20 21 23 24 24 23 22 21 21 21 20 20 20 20 21 21 21 20 18 17 16 16 16 16 17 17 18 18 18 18 17 15 15 16 16 16 16 16 15 15 15 15 16 16 16 16 16 16 16 16 15 16 18 20 21 21 21 22 23 23 22 22 22 23 23 23 23 23 23 23 23 23 24 24 25 25 25 25 26
23 25 26 25 25 23 21 20 21 22 23 23 23 23 23 22 22 22 21 20 19 20 21 21 21 20 19 18 17 16 16 17 17 18 19 19 20 20 19 18 18 18 18 18 18 17 16 16 16 16 16 17 17 17 17 17 17 16 16 16 17 19 20 21 21 22 22 22 22 23 23 23 23 23 23 23 23 24 24 24 24 24 24 24 25 25 25
24 26 28 26 25 24 22 22 22 23 24 24 23 23 24 24 23 22 21 21 20 19 20 21 22 21 20 19 18 18 18 18 18 18 20 20 20 20 20 20 20 20 20 20 19 18 17 17 17 17 17 17 18 18 18 18 18 18 17 17 17 18 20 21 22 22 22 22 22 22 23 23 23 24 24 24 24 24 25 25 25 25 25 25 25 25 25
23 26 27 26 26 26 25 24 24 24 24 26 26 25 25 25 24 23 22 21 21 20 20 21 21 21 20 19 19 19 19 19 18 19 20 20 21 21 21 21 21 21 21 20 19 18 17 18 18 18 18 18 18 19 19 19 19 19 19 18 18 18 19 21 22 22 23 23 22 22 23 23 24 24 24 25 25 25 26 26 26 26 26 26 26 26 26
23 25 26 26 28 29 27 26 26 25 24 25 27 27 27 26 26 25 24 23 22 21 20 21 21 21 20 20 20 20 20 19 19 19 19 20 20 20 20 20 20 21 20 19 19 18 18 19 19 19 19 19 19 19 19 19 19 19 19 19 18 18 18 20 21 22 22 23 23 23 23 23 24 24 25 25 25 26 26 27 27 27 27 28 28 28 28
24 26 25 24 27 28 27 26 25 25 25 25 26 27 28 29 28 27 27 25 24 23 23 22 22 21 21 21 21 21 21 20 20 20 20 20 20 19 19 19 19 20 20 20 19 19 19 20 20 19 19 19 19 19 19 19 19 20 20 19 18 18 18 19 20 21 22 23 23 23 24 23 23 23 24 24 25 25 25 26 27 27 28 28 29 28 28
26 26 24 24 27 28 28 27 27 26 25 26 26 25 26 28 28 28 27 27 27 26 26 26 25 24 23 23 23 22 22 21 21 20 20 20 20 20 19 19 19 19 19 19 19 20 20 20 20 20 19 19 19 19 18 19 19 19 20 19 18 18 18 18 19 20 22 23 24 23 24 23 22 22 22 22 23 23 23 24 24 25 26 26 27 27 27
28 28 27 27 30 32 30 28 28 28 27 27 27 27 26 26 27 27 26 27 28 28 27 27 28 27 26 25 24 23 23 22 22 21 21 21 21 20 20 20 20 20 19 19 19 19 20 20 21 20 20 19 19 19 19 19 19 19 19 19 19 18 18 18 18 19 20 22 22 22 22 23 22 22 21 20 20 20 21 21 21 22 22 23 23 24 24
30 31 30 30 33 35 34 32 32 32 30 29 29 30 29 28 28 28 26 26 27 28 28 27 27 28 27 26 24 23 23 23 23 22 22 21 21 21 21 20 20 20 20 20 19 19 19 19 20 20 19 19 20 20 20 19 19 19 20 20 19 19 19 18 18 18 19 19 20 20 21 21 21 21 20 20 19 18 18 19 19 19 20 20 20 21 21
32 33 33 34 36 38 38 37 37 37 35 33 32 32 32 32 31 31 29 27 26 26 27 27 27 28 28 26 25 24 24 23 23 23 23 23 22 22 21 21 21 21 21 21 21 20 20 19 19 19 19 19 20 20 21 21 20 20 20 20 20 19 19 19 18 18 18 18 18 18 19 20 20 20 20 20 19 18 17 17 17 18 18 18 19 19 20
36 36 36 37 39 40 39 39 40 40 39 38 37 35 34 34 33 33 33 31 29 27 27 27 27 27 28 27 26 25 25 25 25 24 24 24 24 23 23 22 22 22 21 21 21 21 20 20 20 19 19 19 19 20 21 21 21 20 20 20 20 20 20 19 19 18 18 18 18 18 18 18 19 19 19 20 20 19 19 18 18 18 18 18 18 19 19
39 38 37 38 40 41 40 40 41 41 41 41 41 40 38 37 36 35 35 34 33 31 30 28 28 28 28 28 27 26 25 25 25 25 25 25 24 24 23 23 23 22 22 21 21 21 21 20 20 20 20 20 20 20 21 21 21 21 20 20 20 20 20 20 19 19 19 19 18 18 18 18 19 19 19 19 20 20 20 19 19 19 19 19 19 19 20
39 39 39 39 40 40 39 40 41 42 42 42 42 42 41 40 39 38 37 36 35 35 34 32 31 30 29 28 27 27 26 26 26 26 25 25 25 24 24 24 23 23 23 22 22 21 21 21 21 20 20 20 20 20 21 21 21 20 20 20 20 20 20 20 20 20 20 19 19 19 18 18 19 19 19 19 19 20 20 20 20 20 20 20 20 21 21
34 38 40 41 41 40 40 41 42 43 43 43 43 42 42 42 42 41 40 39 37 37 36 35 34 33 32 30 29 28 27 27 26 26 26 26 25 25 25 24 23 23 22 22 22 21 21 21 21 21 21 21 20 20 20 21 21 20 19 19 19 19 20 20 20 20 20 20 19 19 19 19 19 19 19 20 20 20 20 20 21 21 21 21 22 22 23
24 30 36 39 41 41 41 42 43 44 44 44 44 44 43 43 43 43 42 41 41 40 38 37 35 35 35 34 32 30 29 28 27 27 27 27 27 26 26 25 24 23 23 22 22 22 21 21 21 21 21 21 21 20 20 21 21 20 20 19 19 19 20 20 20 20 20 20 20 19 20 20 20 20 20 20 20 21 21 21 21 22 22 22 23 23 24
15 20 26 32 36 39 41 42 43 43 44 44 44 44 44 44 43 43 43 42 43 43 42 39 38 38 37 36 34 32 31 29 29 28 28 28 28 28 27 27 26 25 24 23 22 22 21 21 22 22 22 22 21 21 21 21 21 21 20 20 20 19 20 20 20 20 20 20 20 20 20 20 21 21 21 21 22 22 22 23 23 23 24 24 24 24 24
9 12 17 22 27 32 37 39 41 42 43 43 44 44 44 43 43 43 42 42 42 43 42 41 40 40 39 37 35 34 32 31 30 29 28 27 27 27 27 27 26 25 24 23 23 22 21 22 22 22 22 22 22 22 22 22 21 21 21 21 21 20 20 20 20 21 21 20 20 20 20 20 21 21 21 22 22 22 23 23 24 24 24 24 24 25 25
6 6 10 14 19 25 29 34 38 40 42 42 42 42 42 42 43 43 42 42 42 42 41 41 40 40 39 37 35 34 33 31 29 28 27 26 25 25 26 26 26 25 24 23 23 22 21 22 22 23 23 23 23 23 23 23 23 22 22 22 22 22 21 21 21 21 21 21 21 21 21 21 21 21 21 21 22 22 22 22 23 23 24 24 24 25 25
10 7 5 7 12 17 22 27 31 36 39 40 41 40 40 40 41 41 41 42 42 42 41 40 40 40 38 36 34 34 33 31 30 28 27 25 23 23 23 24 25 25 24 23 23 22 22 21 22 23 23 23 23 23 23 23 23 23 23 23 23 23 22 22 22 21 22 22 22 21 21 22 22 22 22 22 22 22 22 23 23 23 24 24 25 26 26
15 12 9 6 5 8 13 18 23 28 32 36 38 39 39 38 38 39 39 40 41 41 40 39 39 39 37 35 34 33 32 31 30 29 27 25 24 23 22 22 22 23 22 22 21 21 21 21 22 22 22 22 22 22 23 23 23 23 23 24 23 23 23 22 22 22 22 22 22 22 22 23 23 23 23 23 23 23 24 24 24 25 25 26 27 28 28
18 16 13 9 6 4 6 10 16 20 24 29 32 35 36 37 37 37 37 38 39 39 38 37 37 37 36 34 33 32 30 29 29 29 28 26 25 24 22 21 21 21 21 21 20 20 21 21 21 21 21 21 21 21 22 23 23 23 23 23 23 23 23 23 22 22 22 22 23 23 23 23 23 23 24 24 24 25 25 26 26 26 27 28 29 29 30
19 18 15 13 11 8 4 4 8 13 17 21 25 29 32 34 35 35 36 36 36 36 36 36 36 36 35 33 32 30 29 28 28 28 27 27 26 24 22 22 21 20 20 20 20 20 20 20 20 20 21 21 21 21 21 22 22 22 22 22 22 22 22 23 22 22 23 23 23 24 24 24 25 25 25 25 26 26 27 27 28 28 29 29 30 31 32
21 19 17 15 14 12 9 6 3 3 8 13 17 21 26 29 30 31 33 34 34 34 35 35 35 34 34 32 30 28 27 27 26 26 26 26 25 24 22 22 21 20 19 20 20 20 19 19 19 19 20 20 20 20 20 20 20 20 20 21 21 21 22 22 22 22 23 24 24 25 25 26 26 26 27 27 27 28 28 28 29 29 30 30 31 31 32
21 21 19 17 16 14 12 10 8 5 1 4 8 12 17 21 23 24 26 29 31 33 34 34 33 33 32 30 29 27 26 25 25 25 24 24 24 23 22 21 21 21 21 21 21 20 19 19 19 19 19 20 20 20 20 20 20 20 20 20 20 20 20 21 21 22 23 23 24 24 25 25 26 26 26 27 27 27 28 28 29 29 29 30 30 30 30
21 20 20 19 17 15 13 12 10 8 5 3 2 5 9 13 16 17 19 21 24 27 30 32 33 31 29 28 27 26 26 25 23 23 22 22 22 22 21 21 21 21 22 22 21 20 20 19 19 20 20 20 21 21 21 20 20 21 21 21 21 21 21 21 22 22 23 24 24 24 24 25 25 25 26 26 27 27 28 28 28 29 29 29 29 29 29
20 20 20 19 18 16 15 14 12 10 7 5 3 3 6 10 12 13 15 16 18 21 25 29 30 29 27 25 25 24 24 24 23 22 21 21 20 20 20 20 20 20 20 20 20 20 19 19 20 20 21 21 21 21 21 21 22 22 22 22 22 22 22 22 22 23 23 24 24 24 24 24 24 25 25 25 25 26 26 27 27 27 28 28 28 28 28
19 19 19 19 18 17 16 15 14 13 11 9 7 5 6 9 11 13 14 16 18 19 22 25 27 26 25 24 24 22 21 21 21 21 20 20 19 19 19 19 19 19 19 19 19 19 19 19 19 19 20 21 21 21 21 22 22 22 22 22 22 22 22 22 22 22 22 22 22 23 23 23 23 23 23 24 24 24 25 25 25 26 26 27 27 27 28
17 17 18 18 17 17 16 15 15 14 14 13 12 9 8 9 10 12 13 15 18 19 20 20 22 22 22 23 23 22 21 20 19 20 20 19 19 19 19 19 19 18 18 18 18 17 17 18 18 18 19 19 19 19 20 21 21 21 21 21 21 21 21 21 21 21 21 21 22 22 22 22 22 22 22 22 23 23 23 24 24 24 25 26 26 26 27
16 16 15 16 16 15 15 15 15 14 13 13 13 13 11 10 10 10 11 14 17 19 19 17 16 16 17 18 19 20 20 20 19 19 19 20 20 19 19 19 19 18 17 17 18 17 17 18 18 18 18 18 18 18 19 20 20 20 20 20 20 20 20 20 21 21 21 21 21 22 22 22 22 22 22 22 23 23 23 23 23 24 24 24 25 25 25
15 14 14 14 14 13 12 12 12 12 11 11 11 12 12 12 11 11 12 13 16 18 18 16 14 13 14 15 16 17 18 17 17 17 18 19 20 20 19 18 18 17 17 17 17 18 18 18 18 18 18 18 17 17 18 18 19 19 19 20 20 20 20 20 20 21 21 21 21 22 22 22 23 23 23 23 23 23 23 23 23 23 23 23 23 23 24
13 13 13 12 12 11 11 10 10 9 9 9 9 9 10 10 11 12 12 13 14 15 15 14 13 13 13 14 15 16 16 16 16 15 16 17 18 19 19 18 17 17 16 16 17 17 17 17 17 17 17 16 16 16 17 17 17 17 17 18 18 18 19 19 19 19 19 20 20 21 21 21 22 22 22 22 23 23 23 23 23 23 23 22 22 22 22
11 11 11 11 11 10 10 10 9 9 8 7 7 7 8 9 10 10 11 11 12 12 12 12 12 12 12 13 14 15 16 16 15 15 15 16 16 17 18 18 17 16 16 16 16 16 16 15 15 15 15 15 15 15 16 16 16 16 16 16 16 17 17 17 17 18 18 18 18 18 19 19 20 20 20 21 21 21 21 21 22 22 22 22 22 22 22
11 10 10 10 10 9 8 8 8 8 7 7 6 5 6 6 7 8 9 9 9 9 10 10 10 10 11 11 12 14 14 14 14 14 15 16 16 16 17 17 17 17 16 16 15 15 15 15 15 14 14 14 14 15 15 16 16 16 16 15 16 16 16 17 17 18 18 18 18 18 18 18 18 19 19 19 19 20 20 21 21 21 22 22 22 22 23
10 10 9 9 9 8 7 7 6 6 5 5 5 4 4 4 5 5 6 6 6 6 7 7 8 8 8 9 10 11 12 12 13 13 13 14 14 14 15 15 15 15 15 15 14 14 14 14 14 14 14 14 15 15 15 15 15 15 15 14 14 15 15 15 16 16 16 17 17 17 17 17 17 18 18 18 18 19 19 20 21 21 21 21 22 22 22
10 10 9 9 9 8 7 6 5 5 4 3 3 3 2 2 3 3 3 4 4 5 5 6 7 7 7 8 8 10 10 11 11 11 12 12 12 13 13 13 13 13 13 14 14 14 13 13 13 13 14 14 14 14 14 14 14 14 14 14 14 14 14 14 15 15 16 16 16 16 16 16 16 17 17 18 18 18 19 20 20 20 20 21 21 21 22
10 9 9 9 9 8 7 5 5 4 4 3 2 1 0 0 1 1 1 2 3 4 5 5 6 7 7 8 8 8 9 9 9 9 10 10 11 11 12 12 12 12 12 13 13 13 13 13 13 12 12 12 12 13 12 13 13 13 14 14 14 14 15 15 15 16 16 16 16 16 16 16 17 17 17 18 19 19 20 20 20 20 20 21 21 22 22
9 9 9 9 9 9 8 6 5 4 4 3 3 2 1 2 2 2 2 2 3 4 4 4 5 5 6 7 7 8 8 8 8 8 8 9 9 10 11 12 12 12 11 12 12 12 13 13 13 12 12 12 12 12 12 12 13 13 13 14 14 14 15 15 15 15 15 15 15 15 16 16 17 17 18 18 19 20 20 20 20 19 20 21 22 22 23
Wind_Direction
215 214 214 213 214 208 203 206 209 207 206 210 212 210 207 205 205 211 210 201 203 212 214 216 213 202 196 198 196 192 189 185 185 188 193 195 193 195 195 192 192 193 194 196 198 200 202 202 201 202 203 204 204 204 205 205 207 208 208 209 210 211 212 213 214 214 216 218 219 220 221 222 223 224 225 226 226 227 228 229 231 232 233 233 234 234 235
213 211 208 210 215 209 202 204 208 208 207 209 211 211 208 205 207 210 204 200 207 212 205 202 199 190 189 192 188 180 175 174 177 182 186 186 186 190 191 189 190 191 194 197 199 201 203 202 202 203 203 203 203 204 205 206 207 208 208 209 211 212 214 214 215 216 217 219 221 222 223 224 226 227 227 228 227 228 228 230 231 232 232 233 233 233 234
208 205 204 211 218 212 204 203 204 206 209 208 208 210 211 207 205 206 201 198 205 205 191 184 184 179 178 177 171 165 162 163 170 177 180 180 180 183 185 186 189 193 196 199 201 203 203 203 203 204 205 204 204 205 207 208 208 208 208 210 211 213 215 216 217 218 220 221 222 224 225 227 228 229 229 229 229 229 229 230 232 232 232 232 233 233 234
203 200 204 214 219 214 210 207 203 202 206 209 207 207 209 207 203 202 198 190 191 191 184 178 176 173 174 174 166 157 152 152 161 169 173 175 177 179 182 186 191 196 200 202 204 205 205 204 205 206 207 206 206 207 208 210 210 210 211 211 212 213 215 216 218 220 221 223 225 226 227 228 229 230 230 229 229 229 229 230 231 232 232 232 232 233 235
205 203 207 213 214 212 210 207 201 196 201 214 211 205 206 206 200 199 197 190 188 189 185 180 175 170 172 174 168 161 154 148 151 158 165 171 176 180 184 188 193 198 203 206 207 207 206 207 208 208 209 209 208 208 209 210 211 211 213 214 214 215 215 215 217 219 221 223 225 227 228 229 230 231 230 230 229 229 229 229 230 231 232 232 233 233 235
207 209 209 206 202 203 203 200 196 193 196 209 203 198 202 207 206 203 197 189 188 188 185 182 179 175 174 172 167 160 154 147 144 149 159 168 173 177 182 186 190 195 199 202 204 204 205 207 208 209 210 211 212 212 211 211 212 212 214 215 217 217 217 216 217 219 221 224 226 228 229 229 230 230 230 230 230 229 229 230 230 231 232 233 234 235 236
207 210 206 199 199 202 199 193 191 193 199 197 183 183 194 203 210 208 195 186 186 186 183 182 180 176 172 169 164 157 152 149 145 145 154 162 166 170 175 178 181 185 187 191 195 198 201 204 206 209 211 213 214 215 214 213 213 214 215 217 219 219 219 219 219 220 222 224 227 229 230 230 230 230 231 231 230 230 230 231 232 233 234 236 237 238 239
205 205 201 198 201 203 196 190 189 194 205 200 186 180 190 199 205 204 194 189 187 184 183 182 179 173 169 170 171 165 160 158 157 157 160 161 162 166 169 173 178 182 186 190 194 197 199 202 204 207 210 213 214 216 216 215 216 217 218 219 221 221 222 222 222 222 223 225 227 229 229 230 230 231 231 231 231 231 231 232 234 235 236 238 239 240 241
201 203 204 203 203 200 193 194 197 199 205 200 185 178 182 190 193 192 191 190 186 183 183 182 179 176 176 179 182 179 175 173 171 171 172 170 169 170 171 175 181 186 190 195 199 203 205 207 207 209 211 213 214 216 217 218 220 221 222 223 224 224 224 225 225 225 224 226 228 229 229 230 232 233 232 232 232 232 233 234 235 236 237 239 240 240 241
202 204 203 202 202 198 196 204 208 206 208 200 183 174 174 182 186 182 182 185 185 187 189 188 186 185 186 189 191 187 183 182 183 183 184 183 183 182 182 185 190 195 197 200 205 207 209 212 215 216 216 216 216 218 219 219 221 222 224 226 227 227 227 227 227 227 227 228 229 229 229 230 233 234 233 233 233 233 234 234 235 236 238 239 239 240 240
205 204 201 199 198 197 201 209 210 211 215 202 183 173 171 181 187 180 173 175 182 187 190 192 193 193 193 196 198 195 189 188 189 190 193 195 194 194 196 197 199 204 206 208 210 210 213 219 222 224 224 222 222 223 223 223 223 223 225 226 228 229 228 228 228 228 229 230 230 229 228 230 232 234 234 234 233 233 234 234 235 236 236 237 239 240 241
204 205 202 200 198 199 207 213 210 214 216 202 183 176 179 186 190 185 177 175 182 186 187 190 194 195 197 199 201 200 196 193 193 194 197 201 202 205 210 210 210 214 215 216 218 218 221 226 228 229 230 228 228 228 227 227 226 227 227 227 227 229 229 229 230 229 230 230 230 229 229 230 231 232 233 233 232 232 232 232 233 234 235 236 238 240 241
205 205 205 204 201 203 211 214 212 214 210 194 180 180 186 191 192 189 184 182 185 188 189 192 194 195 197 198 199 200 200 200 201 203 206 210 212 215 220 221 223 226 225 226 229 228 227 228 228 230 232 232 232 232 231 230 229 230 230 228 227 228 229 230 230 229 229 229 228 228 228 228 229 230 230 230 230 230 230 231 232 233 235 237 239 241 242
206 206 207 208 205 207 214 213 210 207 199 189 185 188 191 192 192 191 191 190 190 190 192 196 197 197 199 200 200 202 203 204 207 211 215 219 221 224 227 227 229 231 230 231 234 231 228 228 228 229 231 233 233 231 231 232 233 233 233 229 227 227 228 228 229 229 228 227 227 227 227 226 226 227 228 229 230 231 232 233 234 235 236 238 239 241 242
205 204 206 208 207 213 220 214 205 200 194 191 193 194 192 192 193 194 197 199 199 197 196 198 200 201 203 205 205 206 207 207 210 214 217 221 226 231 233 231 233 234 232 233 233 229 227 229 229 227 229 231 230 228 230 235 236 236 236 232 228 226 227 227 227 228 228 227 226 226 226 226 226 227 228 229 231 233 234 234 235 236 237 238 240 241 243
204 203 203 205 207 211 215 209 200 197 194 194 196 196 194 196 198 200 202 205 206 206 203 202 204 205 205 205 207 208 209 211 215 219 223 227 233 238 239 237 237 235 233 234 233 227 226 229 229 228 228 228 229 230 234 238 237 237 238 235 229 226 226 226 226 227 228 228 227 226 226 226 227 227 229 230 232 234 235 236 237 237 238 239 241 243 245
206 204 202 204 208 210 209 207 203 199 197 198 199 197 197 200 202 203 205 208 211 212 211 209 210 210 211 212 213 214 216 218 222 227 232 235 239 241 241 239 237 235 234 237 234 227 227 232 232 232 231 230 232 235 237 238 238 238 239 238 232 228 227 227 227 227 227 228 227 227 228 228 229 230 231 232 233 235 236 237 238 239 240 241 243 245 247
210 207 204 207 213 213 211 212 212 208 204 204 203 200 200 203 205 205 208 212 214 216 217 217 215 215 216 218 220 223 226 229 232 235 238 240 240 241 241 240 237 235 238 239 234 228 230 235 236 236 236 235 236 237 237 238 239 239 240 239 234 229 229 229 229 228 228 228 229 229 230 231 232 233 234 236 236 237 238 238 239 240 241 243 244 246 248
212 208 207 210 217 218 216 216 217 215 211 209 209 207 205 205 206 208 211 215 217 218 220 222 222 220 218 219 224 228 230 232 236 238 240 241 242 241 242 241 238 237 240 240 235 232 234 236 238 239 239 239 240 239 239 239 239 238 239 240 236 231 230 230 229 229 229 230 231 231 232 233 235 236 238 239 240 240 240 240 241 242 243 244 245 247 249
214 214 215 216 217 218 219 219 218 218 216 214 214 214 212 211 210 212 216 218 219 221 222 224 225 225 223 223 227 230 231 232 234 236 237 239 241 241 241 241 240 239 240 240 237 236 237 237 238 240 241 241 241 241 239 239 239 237 237 238 236 233 231 231 231 231 231 232 233 234 234 235 237 238 239 241 242 243 243 242 243 243 245 246 248 249 252
219 217 218 218 215 215 217 218 218 218 217 215 216 216 216 216 216 218 222 222 222 224 227 227 227 229 229 229 230 231 232 232 234 236 236 236 238 238 237 238 238 238 239 239 238 238 238 238 238 240 241 241 241 240 238 238 238 237 236 237 236 234 234 235 235 234 235 235 236 236 235 236 239 240 241 243 244 245 246 246 246 246 247 248 250 252 255
222 219 220 220 217 215 217 218 220 220 218 217 217 217 217 217 216 219 224 227 227 229 231 231 232 233 235 236 235 235 234 234 235 236 235 235 236 236 235 235 235 237 239 239 237 237 238 238 238 239 241 241 240 239 238 237 237 236 235 235 236 236 237 239 239 239 239 239 240 239 237 237 239 241 243 245 246 246 247 247 248 249 249 250 252 253 255
228 228 229 227 222 219 219 221 222 222 221 221 221 219 220 220 218 218 223 228 230 232 234 233 234 235 238 239 240 239 237 236 235 235 235 235 236 237 238 238 237 238 239 239 237 237 237 238 239 239 241 242 241 240 239 239 238 237 235 235 237 237 238 240 240 240 241 241 242 241 239 238 239 239 241 244 247 248 248 247 247 249 250 252 253 254 255
234 233 233 232 228 225 225 226 225 223 223 225 225 224 224 225 224 223 225 226 228 232 235 235 235 236 237 238 240 239 237 236 236 235 234 235 236 236 238 240 239 240 240 240 240 239 238 239 240 240 241 243 242 241 241 240 240 238 237 237 238 239 240 241 241 240 240 241 241 241 240 239 238 238 240 241 243 247 249 248 248 248 249 251 253 255 256
239 237 236 235 233 231 230 230 228 225 225 226 228 227 227 227 227 227 227 227 226 229 233 235 236 236 236 237 238 238 237 238 238 237 235 235 235 236 237 238 239 241 241 242 242 241 239 239 240 241 242 243 243 242 242 241 240 239 238 237 238 239 240 241 241 240 240 240 240 239 239 238 238 238 238 238 238 241 246 248 249 249 250 251 254 257 260
242 241 240 238 235 233 232 231 230 229 228 228 229 229 229 229 229 228 229 228 227 228 230 233 235 235 236 237 237 238 239 240 240 239 238 237 236 236 236 237 239 240 241 242 243 243 242 242 241 242 243 244 244 243 242 240 239 239 239 238 237 238 239 240 240 240 240 239 239 237 236 237 237 237 237 238 239 240 243 246 249 250 252 255 257 259 262
245 242 240 238 235 232 231 231 231 230 230 230 230 231 231 231 231 231 231 231 230 230 230 233 235 236 237 238 238 239 242 242 240 239 239 239 238 238 237 237 238 239 241 243 244 245 245 244 243 243 243 244 245 244 242 240 239 238 239 239 238 238 239 240 240 240 239 238 237 236 236 236 237 237 237 238 240 242 243 245 247 250 253 256 259 262 264
246 242 239 236 234 232 231 232 232 232 231 231 231 232 232 233 233 233 233 233 233 232 232 234 237 238 238 240 240 240 241 241 239 238 239 239 238 238 239 238 238 239 240 241 243 244 245 244 244 243 243 245 245 243 240 240 239 239 239 240 241 240 240 240 240 240 239 238 237 236 236 237 238 238 239 240 242 244 246 247 248 251 254 258 261 264 267
246 241 238 236 235 234 233 233 233 233 233 234 234 234 234 234 235 234 234 234 234 233 233 234 237 239 240 241 242 241 240 240 239 238 239 239 238 238 238 237 237 238 239 240 243 243 243 243 244 243 243 245 245 243 240 238 237 238 240 242 242 241 240 239 238 238 237 237 237 236 236 238 239 241 243 244 246 247 249 250 251 253 256 260 263 266 269
251 242 237 235 234 233 233 233 233 233 234 234 234 234 235 235 235 235 235 234 234 234 234 235 237 239 240 241 241 241 240 240 240 239 240 240 239 238 237 236 236 238 239 241 243 244 244 244 244 243 243 244 243 243 241 239 237 237 240 242 242 241 240 239 238 238 238 239 239 239 238 239 241 243 245 246 247 249 251 252 253 255 258 261 265 268 271
263 244 235 234 233 233 233 233 232 232 233 234 234 234 234 234 235 235 236 235 235 235 235 235 237 239 240 240 240 240 240 240 239 240 241 242 241 239 238 237 236 237 239 241 244 245 245 245 244 244 243 242 242 242 242 241 239 239 240 241 241 242 242 240 240 240 240 241 242 243 243 244 245 246 248 249 250 252 253 255 256 258 260 262 266 269 272
276 243 231 231 232 233 233 233 233 232 233 233 233 233 233 233 234 235 235 236 236 236 235 235 235 238 239 239 239 240 240 239 238 238 239 240 240 238 237 236 235 236 238 241 244 246 246 245 246 246 244 242 241 241 241 241 240 240 240 241 241 241 241 241 241 241 242 242 244 245 246 248 249 251 252 253 255 256 257 259 260 262 264 264 267 270 273
330 266 238 233 231 231 232 233 233 232 232 232 233 233 234 234 234 234 234 235 235 235 234 234 234 237 238 237 237 237 237 236 235 234 234 235 236 236 237 237 236 236 237 240 244 246 246 245 245 245 245 243 241 240 240 240 240 239 239 240 241 241 242 242 242 242 243 244 245 246 247 249 251 253 254 256 258 259 261 262 264 266 266 267 269 272 274
5 347 304 260 242 235 233 233 233 231 231 230 231 232 233 233 234 234 234 234 234 234 233 232 233 234 234 234 234 234 233 232 230 228 228 228 229 231 235 237 238 237 238 240 243 245 245 245 244 243 244 244 242 241 240 240 239 239 239 239 240 240 241 242 243 244 244 246 247 248 250 251 253 255 257 258 259 261 263 264 266 267 267 268 271 273 275
17 11 2 336 287 255 241 236 233 230 229 229 230 230 231 232 233 234 233 233 233 232 231 230 230 230 230 230 230 229 229 228 226 224 224 224 226 229 232 235 238 239 240 240 242 244 244 244 243 242 242 242 241 240 239 239 238 238 238 238 239 240 241 242 244 245 246 247 249 251 253 254 256 258 259 260 261 262 264 265 267 269 270 271 273 274 276
23 19 14 5 350 319 264 244 236 232 231 231 230 230 230 230 230 231 231 231 231 230 228 227 227 227 226 225 224 223 223 224 223 222 223 224 226 230 233 235 238 241 241 241 243 243 242 242 242 242 241 241 241 240 239 239 238 238 238 238 239 241 242 244 245 247 249 250 252 253 255 256 257 259 260 261 262 264 265 266 268 270 271 273 274 276 277
27 26 23 18 14 11 352 281 244 232 229 230 231 230 230 229 229 228 228 228 227 226 223 223 223 223 222 220 218 217 218 219 219 220 221 223 225 228 232 235 237 238 238 239 240 240 240 240 241 241 240 241 241 241 240 240 239 238 239 240 242 243 245 246 248 250 252 253 254 255 256 257 258 259 260 262 263 265 266 267 269 270 271 273 275 277 279
30 31 30 26 23 21 18 11 348 234 222 224 227 228 228 228 228 228 226 224 222 220 219 218 217 216 214 213 212 213 215 217 217 217 219 222 224 226 229 233 234 233 234 237 238 238 239 241 241 240 240 242 242 243 243 242 241 241 242 243 244 246 248 249 251 252 254 255 256 256 257 258 259 260 261 262 264 266 267 269 270 272 273 275 276 278 280
30 31 31 31 28 26 25 26 30 38 89 199 211 215 216 216 219 222 222 219 217 216 213 210 208 207 207 207 208 210 212 214 216 216 218 220 222 223 224 229 231 232 235 238 240 239 240 241 241 241 242 243 244 244 245 244 244 243 244 244 245 246 248 250 251 253 254 255 256 257 258 259 260 261 262 264 265 267 269 271 272 273 274 275 277 278 280
28 30 32 34 34 35 36 37 37 40 46 64 154 188 188 189 195 204 209 209 209 208 205 202 201 202 204 205 206 208 210 212 214 215 216 217 219 219 222 226 231 233 235 237 240 241 243 242 242 242 244 244 245 245 246 246 246 246 247 247 247 248 249 250 251 253 254 255 256 258 259 260 261 262 263 265 266 267 269 271 271 272 273 274 276 277 279
27 29 33 36 39 43 47 47 45 46 52 63 83 128 147 154 166 181 189 189 188 191 195 196 196 197 199 200 200 203 206 210 212 214 215 216 218 220 223 227 231 233 234 236 238 240 242 243 243 243 244 244 244 244 245 246 246 247 248 250 250 251 251 252 253 254 255 255 257 258 259 260 262 263 264 265 266 268 269 270 271 272 273 274 275 277 278
27 30 33 37 41 46 51 51 50 55 65 74 81 94 116 132 145 158 167 169 170 176 184 189 191 193 197 199 199 201 205 209 212 214 216 218 221 223 225 228 230 232 233 235 237 239 241 242 243 243 242 242 242 243 243 243 244 245 247 249 250 250 251 252 253 253 254 255 256 258 259 261 262 263 264 265 267 268 270 271 272 273 274 275 276 277 278
26 29 33 37 41 46 50 51 53 61 70 74 77 86 105 125 138 147 155 163 168 171 175 179 185 191 198 202 203 205 209 212 214 216 218 220 222 223 224 226 229 231 232 234 237 239 241 242 242 242 242 241 241 242 242 242 242 244 245 246 248 249 250 252 252 253 254 255 256 257 259 260 262 263 264 265 267 269 270 272 273 274 275 276 277 278 279
21 25 30 35 39 44 49 52 56 64 73 77 78 84 96 112 131 145 155 165 171 174 175 176 179 185 193 199 203 206 210 212 215 218 219 220 220 221 223 224 227 230 233 235 237 239 242 243 242 242 242 242 242 242 242 242 243 244 245 246 248 249 250 252 253 254 255 257 258 259 261 262 263 263 264 265 266 268 270 272 274 275 276 277 278 279 280
18 21 26 31 35 38 43 48 52 60 69 77 83 88 93 101 113 129 143 155 165 171 174 177 180 183 188 194 197 200 203 207 210 214 216 218 220 221 221 223 227 231 234 236 238 239 242 243 242 242 241 241 241 242 242 243 245 247 248 249 250 251 252 254 255 256 257 258 260 261 262 263 263 264 264 265 266 268 270 271 273 275 277 278 279 280 281
15 18 21 25 30 33 35 38 43 50 61 72 84 95 100 103 109 119 129 140 152 161 168 173 178 183 189 193 195 196 197 200 203 207 210 214 216 217 218 221 227 231 233 235 236 237 238 239 240 240 240 240 241 242 243 245 246 248 249 250 251 252 253 254 255 256 258 260 261 262 263 264 264 265 266 266 268 269 270 271 273 274 276 277 278 280 281
9 13 16 19 23 27 30 33 36 40 48 62 79 96 107 113 119 125 130 137 146 156 164 171 177 182 187 192 195 195 196 199 205 209 211 211 212 214 218 222 225 228 229 231 233 235 235 236 237 238 239 240 241 242 243 245 246 247 248 249 250 251 252 254 255 258 260 261 262 263 264 265 266 267 268 268 268 269 270 271 272 273 274 276 277 278 280
359 4 9 13 17 18 22 27 32 35 40 50 66 89 109 120 128 133 136 140 146 154 162 168 173 178 184 189 192 195 197 202 209 214 216 215 215 217 220 223 224 225 226 228 230 233 235 236 236 237 238 239 240 241 242 244 245 245 245 246 248 250 252 255 258 260 261 262 262 264 265 266 266 267 268 269 270 271 272 273 274 275 276 277 278 279 280
351 353 358 3 8 10 12 16 23 31 39 45 54 71 97 118 131 138 142 145 150 158 167 174 178 181 184 188 192 195 200 205 209 213 215 216 217 218 221 224 225 226 228 229 231 234 236 236 236 238 239 239 240 242 242 241 242 243 245 247 250 253 256 258 260 261 262 262 263 265 266 267 267 267 268 269 272 274 276 277 277 277 278 278 280 281 283
346 346 348 352 354 357 359 1 7 16 26 36 45 58 79 106 129 145 156 161 162 166 175 187 192 193 193 192 194 196 199 203 207 211 215 217 218 218 219 220 223 226 230 232 233 235 236 234 234 236 237 237 239 242 243 243 244 245 247 250 253 255 257 260 262 262 262 261 262 264 266 268 269 270 271 273 273 275 277 279 279 279 279 280 281 283 284
343 342 343 345 347 349 350 353 357 2 4 7 10 11 12 190 192 194 194 188 183 181 184 192 200 202 201 200 201 203 205 206 208 213 218 221 221 220 218 218 220 225 229 230 231 233 234 233 233 236 239 240 241 244 248 250 251 251 252 254 256 257 258 260 262 263 262 263 265 267 270 272 273 275 277 278 278 278 279 281 280 279 280 282 283 283 284
344 342 338 336 338 340 341 343 347 350 350 348 343 329 297 265 253 249 247 238 223 213 207 206 207 209 210 211 212 213 214 214 215 218 222 225 226 225 224 222 223 226 229 229 230 232 234 235 235 238 241 243 245 247 249 251 252 254 255 257 258 259 259 259 261 263 265 267 270 272 274 276 277 278 280 281 281 281 281 281 280 279 281 282 283 283 284